EHI
0 0 0 1 3 5 4 1 0 0 0 0 0 0 0 0 0 0 0 2 3 2 2 12 19 11 2 0 0 0 0 0 0 0 0 0 0 0 0 0 0 0 0 0 0 0 0 0 0
0 0 0 0 1 2 1 0 0 0 0 0 0 0 0 0 0 0 0 1 2 1 2 10 17 12 3 0 0 0 0 0 0 0 0 0 0 0 0 0 0 0 0 0 0 0 0 0 0
0 0 0 0 0 0 0 0 0 0 0 0 0 0 0 0 0 0 0 0 1 0 2 11 18 13 3 0 0 0 0 0 0 0 0 0 0 0 0 0 0 0 0 0 0 0 0 0 0
0 0 0 0 0 0 0 0 0 0 0 0 0 0 0 0 0 0 0 0 0 1 3 12 20 14 3 0 0 0 0 0 0 0 0 0 0 0 0 0 0 0 0 0 0 0 0 0 0
0 0 0 0 0 0 0 0 0 0 0 0 0 0 0 0 1 1 1 0 3 9 10 14 20 14 3 0 0 0 0 0 0 0 0 0 0 0 0 0 0 0 0 0 0 0 0 0 0
0 0 0 0 0 0 0 0 0 0 0 0 0 0 0 0 1 1 1 0 8 22 23 17 17 12 3 0 0 0 0 0 0 0 0 0 0 0 0 0 0 0 0 0 0 0 0 0 0
0 0 0 0 0 0 0 0 0 0 0 0 0 0 0 0 0 1 0 1 14 36 36 18 9 7 2 0 0 0 0 0 0 0 0 0 0 0 0 0 0 0 0 0 0 0 0 0 1
0 0 0 0 0 0 0 0 0 0 0 0 0 0 0 0 1 2 1 3 19 45 46 20 4 3 1 0 0 0 0 0 0 0 0 0 0 1 2 1 1 0 0 1 2 2 3 3 3
0 0 0 0 0 0 0 0 0 0 0 0 1 4 4 1 2 5 5 8 26 53 54 27 8 4 1 1 1 1 0 0 0 0 1 1 0 1 6 12 18 20 19 17 16 14 12 8 6
0 0 0 0 0 0 0 0 0 0 0 1 5 12 11 4 4 10 11 19 42 65 63 44 28 15 4 4 8 4 0 1 0 2 6 6 2 1 10 32 52 57 50 39 29 21 15 9 4
0 0 0 0 0 0 0 0 0 0 0 2 7 18 20 10 8 17 22 36 64 78 71 63 58 41 15 11 17 10 4 7 8 10 16 16 7 1 14 47 75 79 67 44 26 21 18 9 3
0 0 0 0 0 0 0 0 0 0 0 2 6 16 23 20 18 28 35 49 75 85 76 76 81 71 42 30 32 23 13 20 26 30 34 31 25 17 24 54 78 78 65 47 31 29 28 18 9
0 0 0 0 0 0 0 0 0 0 0 1 4 10 18 24 31 41 48 58 78 87 82 86 93 91 75 63 59 45 32 35 46 57 61 56 55 50 48 65 81 74 63 57 51 44 40 31 21
0 0 0 0 0 0 0 0 0 0 0 1 3 6 11 21 35 49 59 68 78 85 87 93 99 99 95 90 80 64 50 47 55 71 82 82 80 78 78 84 87 77 63 60 59 53 48 39 29
0 0 0 0 0 0 0 0 0 0 1 3 5 7 14 25 37 50 68 76 75 82 91 95 97 99 100 98 88 71 56 50 59 75 90 94 93 91 92 93 90 81 70 65 62 58 53 42 32
0 0 0 0 0 0 0 0 0 0 1 4 8 13 25 40 47 55 70 78 78 85 96 97 95 97 100 99 93 79 63 58 67 82 94 99 98 95 93 92 90 86 81 75 68 63 57 48 39
0 0 0 0 0 0 0 0 0 0 1 4 11 20 34 51 63 70 75 80 84 92 98 98 97 98 100 100 98 91 82 77 79 88 96 100 99 96 94 93 92 90 87 82 74 69 66 57 49
0 0 0 0 0 0 0 0 0 0 0 4 12 26 42 59 74 82 84 86 91 96 99 100 100 100 100 100 100 99 96 93 91 93 98 100 99 97 95 94 93 92 89 85 81 78 74 65 57
0 0 0 0 0 0 0 0 0 0 1 5 14 27 46 63 74 81 83 87 93 97 99 99 100 100 100 100 100 100 100 99 98 97 98 99 98 96 94 92 92 91 88 85 84 82 76 65 57
0 0 0 0 0 0 0 0 0 0 2 8 17 26 39 53 62 65 66 71 80 87 91 94 97 99 99 100 100 100 100 100 100 98 98 98 98 96 93 91 90 87 82 79 79 76 68 58 50
0 0 0 0 0 0 0 0 0 1 3 10 17 22 27 34 40 39 39 44 52 60 68 78 88 94 97 98 99 99 99 99 100 99 99 99 99 97 93 89 86 80 72 69 66 61 54 46 40
0 0 0 0 0 0 0 0 0 2 5 10 13 14 14 16 18 18 18 21 25 29 36 51 69 82 90 93 94 95 96 96 98 99 99 99 99 96 91 85 80 73 66 59 54 47 42 34 28
0 0 0 0 0 0 0 0 0 3 6 9 9 7 5 5 6 7 7 8 8 9 13 23 41 61 76 84 87 90 91 92 92 93 96 97 96 93 87 80 75 70 63 55 47 40 32 22 15
0 0 0 0 0 0 0 0 0 2 5 6 6 4 1 0 1 2 2 2 2 2 3 6 17 35 53 67 77 83 86 85 83 84 87 90 90 87 80 72 67 62 55 46 37 30 22 12 7
0 0 0 0 0 0 0 0 1 2 2 3 2 1 0 0 0 0 1 1 1 0 0 3 9 19 32 46 59 69 72 72 70 70 72 74 76 75 67 58 53 47 40 31 23 19 13 7 4
0 0 0 0 0 0 0 0 2 3 1 0 0 0 0 0 0 0 0 1 1 0 1 4 10 17 22 29 39 47 51 51 52 54 55 55 58 58 51 43 36 30 22 17 16 15 10 7 6
0 0 0 0 0 0 0 0 1 2 1 0 0 0 0 0 0 0 0 0 0 0 2 6 12 20 23 23 23 26 30 33 35 39 40 41 42 38 32 27 22 16 11 10 12 12 10 7 6
0 0 0 0 0 0 0 0 0 0 0 0 0 0 0 0 0 0 0 0 0 1 3 7 13 20 23 20 14 13 16 20 23 24 25 28 27 22 16 13 11 8 5 5 7 8 7 4 3
0 0 0 0 0 0 0 0 0 0 0 0 0 0 0 0 0 0 0 0 1 2 4 7 11 16 17 14 8 6 8 10 10 10 12 14 14 11 8 6 5 3 2 2 3 3 2 1 0
0 0 0 0 0 0 0 0 0 0 0 0 0 0 0 0 0 0 0 0 1 2 4 6 9 11 12 10 6 4 4 4 4 3 4 6 6 6 5 3 2 1 0 0 1 1 1 0 0
Wind_Speed
9 12 10 7 5 5 3 14 15 14 13 13 10 8 14 18 12 10 12 17 23 21 19 18 16 16 15 14 13 13 13 12 11 10 9 8 8 7 6 5 5 5 6 6 6 6 6 6 6
10 14 10 6 3 4 6 14 13 12 10 10 8 9 15 16 12 13 14 18 23 21 18 17 18 16 15 14 13 13 12 12 11 10 9 9 8 7 6 5 4 4 4 4 4 4 4 4 4
12 15 8 6 3 1 8 12 10 11 10 8 9 13 12 10 10 12 15 19 21 19 17 18 18 17 15 14 13 12 12 12 11 10 9 8 8 7 6 6 5 4 4 3 3 3 3 3 3
9 8 8 8 2 3 9 8 8 11 9 7 7 12 12 7 7 14 17 19 20 19 18 19 18 17 15 14 13 13 12 11 11 10 9 8 8 8 7 6 6 5 4 4 3 3 3 3 4
10 8 10 6 3 6 9 8 7 10 7 9 10 16 11 8 12 17 16 18 19 19 19 19 18 17 16 14 13 13 12 11 11 10 9 8 8 8 8 7 7 6 5 5 5 4 5 5 5
8 9 10 5 3 3 8 5 4 8 6 7 6 15 10 10 13 14 15 15 17 20 20 17 18 17 16 15 14 13 12 11 11 10 9 8 8 8 8 8 7 7 7 6 6 6 6 7 7
10 12 15 9 6 3 6 5 5 5 6 9 6 11 11 12 12 13 13 13 16 20 19 16 15 15 15 14 14 13 12 11 11 10 9 9 8 8 8 8 8 8 8 8 8 8 8 9 9
9 11 17 12 6 5 7 2 2 4 7 7 4 7 12 14 14 14 12 10 14 18 19 16 15 13 12 12 14 13 12 12 11 10 10 10 10 10 11 10 11 11 10 10 10 10 11 11 11
12 11 14 11 6 6 8 3 1 3 5 3 3 10 16 18 16 15 11 9 10 15 16 16 15 13 13 13 14 14 13 12 11 11 12 10 9 10 11 14 14 15 14 13 12 12 13 12 13
9 11 15 8 9 8 6 4 5 3 4 6 7 12 17 16 15 15 13 12 11 11 14 13 15 14 13 12 12 10 10 10 10 9 11 9 8 7 10 14 17 18 17 15 15 15 14 12 9
12 15 17 12 9 8 9 8 5 7 3 5 4 11 15 16 14 14 13 11 11 9 10 11 13 11 12 8 10 8 7 8 11 11 10 8 7 7 7 5 10 12 14 11 11 13 9 9 8
14 14 15 11 12 10 10 10 9 9 4 6 4 6 12 14 14 14 12 10 12 10 11 10 11 9 7 7 7 8 7 7 9 11 11 9 6 5 5 3 6 7 7 8 7 5 8 9 7
10 13 15 12 11 11 13 13 12 11 5 2 1 3 7 11 12 13 14 12 12 11 10 9 8 9 6 4 3 6 6 7 8 7 10 8 6 6 6 3 2 3 3 3 5 4 4 4 5
11 11 12 13 13 13 14 13 14 13 8 4 3 4 7 8 10 11 13 13 12 14 13 10 9 9 7 5 4 4 4 4 4 5 8 10 6 5 4 4 3 3 3 2 1 2 2 3 4
9 12 15 17 17 15 12 14 15 13 7 4 5 6 5 4 6 8 10 11 12 13 12 10 10 9 9 8 7 7 6 6 5 4 6 8 8 5 4 3 3 3 2 2 1 3 2 4 5
12 15 17 19 15 9 7 12 11 8 5 3 5 3 1 4 2 3 6 8 7 8 9 10 11 11 10 8 6 7 7 6 5 5 5 7 7 6 5 4 4 3 2 2 2 2 2 3 4
16 17 17 16 9 7 8 9 5 1 2 2 3 3 1 4 2 2 1 4 5 4 5 7 7 8 9 10 7 8 6 5 4 4 4 5 7 7 5 4 3 3 2 2 4 2 2 3 4
11 12 11 10 3 2 5 10 9 3 1 2 4 3 5 5 5 5 5 5 3 1 2 3 5 4 4 5 6 6 7 6 5 5 4 4 5 6 5 4 4 4 3 3 3 3 3 3 4
12 13 13 11 5 4 8 13 14 7 2 1 3 6 7 8 9 8 7 6 6 5 3 1 1 3 3 4 5 6 7 6 5 5 6 6 5 6 5 5 4 4 4 4 4 3 4 3 3
9 10 11 11 5 5 9 14 14 10 7 3 2 3 4 6 6 6 6 7 7 7 6 5 3 3 4 4 4 5 5 5 6 5 5 6 6 6 6 6 5 5 4 5 5 4 3 3 3
9 9 9 11 11 11 14 17 17 15 10 8 6 4 5 5 5 5 4 5 6 6 6 5 5 5 5 5 4 5 5 5 6 6 5 6 7 7 6 6 6 5 5 5 6 5 5 4 3
9 10 11 11 12 13 16 16 14 9 11 10 7 6 6 6 5 4 4 4 4 5 5 4 5 5 5 5 5 6 6 7 7 5 5 5 6 7 7 7 7 6 5 5 6 6 4 4 4
9 11 11 14 15 17 17 17 15 8 5 9 9 6 5 3 3 3 3 3 4 4 4 4 4 5 5 5 6 6 7 6 6 5 6 5 5 7 7 6 5 5 5 6 5 4 4 4 4
7 10 14 16 14 17 12 12 10 4 9 13 10 7 5 2 1 1 1 1 2 3 3 3 3 4 4 5 6 6 7 8 8 8 6 5 4 4 7 7 6 6 5 5 5 4 4 4 3
6 8 8 9 7 6 3 6 7 6 9 10 8 5 3 0 2 2 2 3 3 3 3 3 4 4 4 5 6 6 6 7 8 7 6 5 4 4 6 7 6 5 5 4 4 4 4 4 4
6 8 7 9 11 12 10 9 0 10 9 7 5 2 2 4 3 3 4 4 4 5 4 4 5 4 5 5 5 5 6 5 5 5 5 4 3 3 4 5 6 6 6 5 4 3 4 4 4
7 7 9 9 13 15 11 7 8 6 4 3 4 5 5 5 4 5 6 5 4 5 5 5 5 4 5 5 5 4 4 4 4 5 4 3 2 2 2 2 4 5 5 4 3 3 3 2 2
10 9 7 7 9 12 13 11 3 4 5 5 5 5 5 5 6 5 4 3 3 3 4 4 4 4 4 5 5 4 4 3 3 3 3 2 2 2 2 1 1 2 3 3 2 1 2 2 2
8 9 8 8 8 11 13 11 8 4 1 4 7 8 7 7 7 5 4 3 3 4 4 3 3 3 3 4 4 4 3 3 3 2 3 3 4 4 4 3 2 1 1 1 1 1 2 3 3
8 8 9 9 10 11 13 14 9 4 4 6 8 8 8 8 7 6 4 3 4 4 4 4 3 3 3 3 2 2 2 2 2 3 4 4 4 4 4 4 3 2 1 1 1 3 4 5 6
Wind_Direction
248 248 240 256 262 274 23 60 52 55 60 64 43 34 53 50 51 84 127 132 119 125 134 138 137 137 137 138 140 141 143 144 144 142 141 140 138 134 129 122 113 105 100 98 97 98 102 105 110
273 264 251 249 293 318 61 69 64 58 58 76 65 39 66 65 72 111 130 122 120 127 139 140 139 138 138 139 140 142 144 146 147 146 147 148 150 152 150 145 139 131 120 114 113 114 117 124 131
264 261 266 242 195 205 75 81 85 75 58 55 79 64 52 67 81 114 123 128 125 132 138 136 144 141 142 143 143 144 145 146 149 151 154 156 160 163 164 162 162 161 154 149 144 141 147 158 172
269 256 233 253 266 108 77 90 94 89 82 58 65 79 73 60 94 118 132 133 129 137 135 142 148 146 147 149 151 151 151 152 154 157 162 166 170 172 173 174 176 180 180 183 184 188 193 200 210
260 261 260 274 326 64 73 63 76 86 66 59 71 86 83 92 107 123 142 137 141 140 134 146 151 151 153 156 159 159 158 159 161 164 169 174 179 183 183 184 187 193 200 207 212 217 220 222 229
274 271 286 316 303 63 67 51 37 73 82 95 83 99 96 117 122 143 147 149 148 136 136 146 154 155 159 163 166 166 166 167 168 171 175 180 185 191 193 195 199 205 213 220 225 228 233 233 235
276 295 293 280 243 140 68 11 28 47 53 55 28 96 120 133 139 148 142 164 148 137 136 149 156 160 165 169 173 174 174 175 178 181 185 190 195 201 205 207 211 214 219 225 230 234 237 239 239
280 292 290 286 258 107 83 356 19 18 70 62 8 75 134 140 151 144 154 174 142 135 141 155 158 162 168 175 181 182 183 185 189 193 197 201 207 212 216 216 216 219 221 226 233 238 242 244 243
270 268 277 306 326 83 85 334 57 67 115 111 69 65 123 144 154 147 161 174 147 142 146 158 160 166 175 180 180 184 191 195 198 202 208 211 217 215 213 221 215 215 220 225 231 239 244 247 247
246 265 275 331 347 1 27 329 356 286 187 163 141 112 129 148 156 155 168 175 161 153 153 163 161 171 183 192 168 184 192 192 203 206 200 208 224 234 225 209 209 211 217 223 230 237 242 244 248
250 263 285 313 330 335 322 319 326 302 345 52 94 141 147 157 162 166 175 180 162 167 167 169 160 173 187 194 162 189 196 186 197 216 204 205 218 227 232 195 195 208 216 222 227 230 233 235 235
250 272 287 301 314 317 306 303 301 300 349 67 64 129 154 167 172 176 176 182 164 180 184 180 162 170 201 203 181 187 198 188 192 199 207 203 209 229 232 211 187 197 207 210 225 212 214 229 241
256 269 278 277 276 280 278 279 283 278 291 63 88 178 178 180 179 178 174 186 173 182 192 185 169 169 194 233 231 199 204 203 197 194 195 209 206 208 225 226 208 229 237 206 214 236 236 240 249
282 280 278 282 275 268 267 270 269 266 252 215 200 209 211 197 179 179 176 180 181 184 194 189 178 174 183 210 232 262 236 215 223 201 190 197 211 212 211 204 197 222 257 272 251 267 271 264 266
278 283 273 260 250 246 255 264 262 261 246 236 246 227 206 183 177 182 175 176 188 186 190 182 179 184 186 208 219 231 241 242 221 219 205 191 200 211 207 214 201 209 227 249 267 285 292 283 281
254 253 256 255 234 226 237 269 280 264 219 238 274 282 152 113 174 181 161 168 192 189 180 181 195 191 188 200 217 231 238 240 232 212 208 198 201 210 201 207 213 209 210 223 233 241 258 272 283
241 242 252 254 191 221 238 270 291 333 282 278 286 295 30 100 107 62 75 176 192 183 170 177 203 199 190 199 213 234 251 255 260 244 214 199 199 208 207 212 214 210 221 234 254 249 252 266 273
298 289 264 262 189 192 270 283 285 270 260 311 334 22 41 53 53 43 24 11 31 90 163 176 194 217 203 205 217 229 242 245 243 250 245 221 206 207 208 213 215 217 226 227 231 249 253 261 267
325 317 319 314 355 356 304 291 287 285 261 258 28 50 55 53 48 34 24 11 12 17 7 328 255 255 247 240 235 234 237 240 243 241 238 228 221 213 207 222 210 210 221 229 231 237 250 253 258
288 288 288 285 296 294 282 279 277 269 250 207 132 100 86 78 66 52 34 19 14 8 3 355 337 302 276 260 259 257 262 262 253 249 243 228 218 214 216 217 221 214 214 220 225 221 230 252 250
282 287 304 322 327 305 286 272 262 242 215 174 164 140 112 98 78 57 44 28 8 3 355 352 348 331 316 301 284 277 272 263 261 252 239 229 224 218 218 221 224 224 221 223 219 216 219 233 244
297 328 333 317 304 293 291 291 286 260 190 167 137 116 98 89 80 59 40 27 3 352 345 349 345 336 328 317 301 289 276 270 268 268 258 245 230 226 223 220 220 222 222 226 227 220 219 227 244
307 319 307 291 283 279 275 275 277 274 172 128 110 117 102 83 77 53 25 17 353 337 335 335 340 335 329 320 307 296 290 284 285 281 271 257 242 233 229 223 222 220 224 225 227 230 221 223 235
293 292 284 268 261 264 287 307 296 23 110 125 141 151 151 153 90 74 352 336 311 307 311 315 320 318 317 312 309 304 299 297 295 289 278 263 244 235 232 226 218 218 222 219 216 216 223 224 236
291 301 300 303 287 282 352 282 276 110 123 136 148 159 162 205 293 290 301 293 285 289 307 314 310 313 318 315 313 311 308 300 293 293 287 279 262 244 227 220 215 217 216 214 213 205 217 228 231
293 287 295 314 316 318 300 271 263 120 113 116 129 176 246 267 274 294 293 291 305 319 336 331 326 323 323 319 315 312 311 304 307 313 308 297 285 270 242 224 217 216 215 212 203 212 217 221 226
290 289 309 302 292 292 296 320 87 88 110 164 197 222 248 264 280 294 296 306 321 331 337 328 323 326 326 322 316 313 317 317 316 315 314 315 319 300 287 246 227 222 216 212 202 210 222 217 214
251 278 286 284 298 302 305 320 44 167 217 233 248 264 275 288 290 293 304 315 330 327 318 315 323 329 336 329 325 324 331 331 326 327 343 355 360 2 6 5 295 241 214 200 191 219 203 174 136
259 263 287 300 295 300 302 305 323 323 308 308 306 301 295 293 297 308 322 332 332 324 319 325 326 332 336 332 330 322 325 346 360 20 34 39 34 28 29 22 8 321 242 171 157 185 125 107 90
279 288 290 283 289 293 292 294 314 6 339 302 296 301 311 309 301 298 307 324 327 321 312 311 309 312 313 319 326 337 5 30 42 50 47 43 45 38 33 31 25 355 345 73 112 116 105 98 92